SL-14 DEB, 45328

Orbit data source: Space-Track

SL-14 DEB, 45328 is space debris in LEO originally from a launch on Thu, 15 Aug 1991 UTC launched from the Plesetsk Missile And Space Complex (PKMTR). Debris objects in space refer to the collection of defunct objects orbiting the Earth. Examples of debris include non-operational satellites, rocket bodies, and fragments generated from explosions, collisions, or faulty payload assembly.

Loading next visibility...
Identifier
45328, 1991-056BS
Orbit
LEO
Country
Flag of CISCIS
Related business
Manufacturer
Unknown
Mission
Spacecraft
Bus & Motor
Unknown
Mass
Unknown
Launch date (UTC)
1991-08-15 (35 years ago)
Launch vehicle
Unknown
Launch site
Plesetsk Missile And Space Complex (PKMTR)
Object type
Payload
Rocket body
Debris
Shape & HBR
Unknown shape, 0.1 m
Radar Cross Section
Medium (>0.1 m² and <1 m²)

Expand to show TLE details & history
Last TLE update: 15 hours ago

TLE from 15 hours ago
0 SL-14 DEB
1 45328U 91056BS  26257.23712850  .00001338  00000-0  21178-2 0  9999
2 45328  82.5505 355.9981 0105763 276.3008  82.6094 13.46862714320755
Epoch: 2026-09-14T05:41Z
TLE epoch observation values (Epoch: 2026-09-14T05:41:27.902Z)
Latitude
0.00002°
Longitude
-82.58847°
Altitude
1,077.343 km
Speed
7.318 km/s
True Right ascension
23h 43m 59s
True Declination
0° 00' 00"
Sunlit
Object was in full shadow at epoch
Visualization orbit readout
Latitude
Unknown
Longitude
Unknown
Altitude
Unknown
Speed
Unknown
Apparent Right ascension
Unknown
Apparent Declination
Unknown
Sunlit
N/A
Visualization observer readout
Local Sidereal Time
13:38:47
Azimuth
Unknown
Elevation
Unknown
Doppler factor
Unknown
Orbital elements
Apogee altitude
1,159.917 km
Perigee altitude
1,002.136 km
Semi-major axis
7,459.163 km
Eccentricity
0.01058
Inclination
82.5505°
RAAN
355.9981°
Arg. of periapsis
276.3008°
True anomaly
83.81324°
Mean anomaly
82.6094°
Eccentric anomaly
83.21113°
Mean motion
3.36905 °/min
Orbital period
106.85 mins
BSTAR
0.0021178
Loading maneuver chart data...
Computing Atmospheric mass density...
Loading historical data...
Loading historical data...
Loading historical data...
Loading historical data...
Loading historical data...
Loading historical data...
Loading historical data...

Documentation

Showing up to 5 results
|